Вернуться в каталог

FENGYUN 1C DEB

LostPO
NORAD 31835·DEBRIS·🇨🇳 China

Запущен May 10, 1999 с Taiyuan Satellite Launch Center

Loading…

Ближайшие Пролёты (ближайшие 24 часа)

TLE

УстаревшееSource: Space-Track

Эпоха: May 15, 2013, 16:13 UTC

1 31835U 99025CHZ 13135.67582413  .00005094  00000-0  33563-2 0  9994
2 31835  98.3320 296.5729 0181051 214.5570 206.7154 13.94489834304811

Отслеживайте FENGYUN 1C DEB в реальном времени с AllMySat

Download on the App Store